,,Stat5,,Stat1,,Stat2,,Stat3,,Stat4,,Wind1,,Wind1,
time,status,PA1M_AVG,status,PR1M_SUM,status,RH1M_AVG,status,SR1M_AVG,status,TA1M_AVG,status,W1dAve1m,status,W1sAve1m,
2003-06-16, 00:00:00,VALID,917.07,VALID,0,VALID,99.7307,VALID,0,VALID,19.4857,VALID,347,VALID,0,
2003-06-16, 00:01:00,VALID,917.057,VALID,0,VALID,99.7345,VALID,0,VALID,19.4889,VALID,347,VALID,0,
2003-06-16, 00:02:00,VALID,917.038,VALID,0,VALID,99.6836,VALID,-0.0169808,VALID,19.3695,VALID,347,VALID,0.00480769,
2003-06-16, 00:03:00,VALID,917.016,VALID,0,VALID,99.5794,VALID,0,VALID,19.2468,VALID,347,VALID,0.206926,
2003-06-16, 00:04:00,VALID,917.013,VALID,0,VALID,99.4929,VALID,0,VALID,19.179,VALID,347,VALID,0.44668,
2003-06-16, 00:05:00,VALID,917.013,VALID,0,VALID,99.4916,VALID,0,VALID,19.1174,VALID,347,VALID,0.470806,
2003-06-16, 00:06:00,VALID,917.021,VALID,0,VALID,99.5527,VALID,0,VALID,19.143,VALID,347,VALID,0.474657,
2003-06-16, 00:07:00,VALID,917.033,VALID,0,VALID,99.6226,VALID,0,VALID,19.1691,VALID,347,VALID,0.350329,
2003-06-16, 00:08:00,VALID,917.038,VALID,0,VALID,99.6913,VALID,0.0169808,VALID,19.2205,VALID,347,VALID,0.119391,
2003-06-16, 00:09:00,VALID,917.036,VALID,0,VALID,99.7129,VALID,0,VALID,19.2528,VALID,347,VALID,0,
2003-06-16, 00:10:00,VALID,917.031,VALID,0,VALID,99.7027,VALID,0,VALID,19.2299,VALID,29,VALID,0.253255,
2003-06-16, 00:11:00,VALID,917.019,VALID,0,VALID,99.6836,VALID,0.0169808,VALID,19.211,VALID,103,VALID,0.526042,
2003-06-16, 00:12:00,VALID,916.985,VALID,0,VALID,99.6722,VALID,-0.101885,VALID,19.1901,VALID,123,VALID,0.442773,
2003-06-16, 00:13:00,VALID,916.945,VALID,0,VALID,99.676,VALID,-0.101885,VALID,19.1735,VALID,126,VALID,0.377673,
2003-06-16, 00:14:00,VALID,916.91,VALID,0,VALID,99.6874,VALID,-0.0679233,VALID,19.167,VALID,126,VALID,0.322368,
2003-06-16, 00:15:00,VALID,916.879,VALID,0,VALID,99.7167,VALID,-0.101885,VALID,19.1705,VALID,126,VALID,0.27097,
2003-06-16, 00:16:00,VALID,916.845,VALID,0,VALID,99.7574,VALID,-0.101885,VALID,19.2033,VALID,126,VALID,0.267188,
2003-06-16, 00:17:00,VALID,916.827,VALID,0,VALID,99.7777,VALID,-0.101885,VALID,19.2318,VALID,126,VALID,0.0925164,
2003-06-16, 00:18:00,VALID,916.803,VALID,0,VALID,99.7587,VALID,-0.101885,VALID,19.1961,VALID,104,VALID,0.171664,
2003-06-16, 00:19:00,VALID,916.813,VALID,0,VALID,99.7167,VALID,-0.101885,VALID,19.1193,VALID,66,VALID,0.282939,
2003-06-16, 00:20:00,VALID,916.821,VALID,0,VALID,99.6175,VALID,-0.101885,VALID,18.9867,VALID,66,VALID,0.266276,
2003-06-16, 00:21:00,VALID,916.849,VALID,0,VALID,99.5514,VALID,-0.118866,VALID,18.9162,VALID,60,VALID,0.374777,
2003-06-16, 00:22:00,VALID,916.843,VALID,0,VALID,99.5196,VALID,-0.118866,VALID,18.8514,VALID,49,VALID,0.406441,
2003-06-16, 00:23:00,VALID,916.84,VALID,0,VALID,99.5488,VALID,-0.101885,VALID,18.8092,VALID,35,VALID,0.444468,
2003-06-16, 00:24:00,VALID,916.826,VALID,0,VALID,99.5654,VALID,-0.101885,VALID,18.7836,VALID,35,VALID,0.369243,
2003-06-16, 00:25:00,VALID,916.824,VALID,0,VALID,99.5768,VALID,-0.101885,VALID,18.7613,VALID,35,VALID,0.392948,
2003-06-16, 00:26:00,VALID,916.797,VALID,0,VALID,99.6213,VALID,-0.101885,VALID,18.761,VALID,35,VALID,0.372266,
2003-06-16, 00:27:00,VALID,916.793,VALID,0,VALID,99.6887,VALID,-0.101885,VALID,18.7871,VALID,35,VALID,0.252204,
2003-06-16, 00:28:00,VALID,916.781,VALID,0,VALID,99.8057,VALID,-0.101885,VALID,18.9095,VALID,35,VALID,0.266426,
2003-06-16, 00:29:00,VALID,916.78,VALID,0,VALID,99.8324,VALID,-0.101885,VALID,18.9614,VALID,35,VALID,0.254012,
2003-06-16, 00:30:00,VALID,916.773,VALID,0,VALID,99.8629,VALID,-0.101885,VALID,19.0096,VALID,35,VALID,0.171242,
2003-06-16, 00:31:00,VALID,916.772,VALID,0,VALID,99.8718,VALID,-0.101885,VALID,19.0287,VALID,35,VALID,0.0196429,
2003-06-16, 00:32:00,VALID,916.752,VALID,0,VALID,99.8731,VALID,-0.101885,VALID,19.0515,VALID,35,VALID,0,
2003-06-16, 00:33:00,VALID,916.74,VALID,0,VALID,99.8731,VALID,-0.118866,VALID,19.0582,VALID,35,VALID,0,
2003-06-16, 00:34:00,VALID,916.724,VALID,0,VALID,99.868,VALID,-0.101885,VALID,19.0518,VALID,35,VALID,0,
2003-06-16, 00:35:00,VALID,916.71,VALID,0,VALID,99.8591,VALID,-0.135847,VALID,19.0488,VALID,35,VALID,0,
2003-06-16, 00:36:00,VALID,916.686,VALID,0,VALID,99.8451,VALID,-0.118866,VALID,19.0585,VALID,35,VALID,0,
2003-06-16, 00:37:00,VALID,916.657,VALID,0,VALID,99.8553,VALID,-0.118866,VALID,19.0684,VALID,35,VALID,0,
2003-06-16, 00:38:00,VALID,916.633,VALID,0,VALID,99.8527,VALID,-0.0849042,VALID,19.0714,VALID,35,VALID,0.0738076,
2003-06-16, 00:39:00,VALID,916.618,VALID,0,VALID,99.8578,VALID,-0.135847,VALID,19.0908,VALID,35,VALID,0,
2003-06-16, 00:40:00,VALID,916.6,VALID,0,VALID,99.882,VALID,-0.118866,VALID,19.1099,VALID,35,VALID,0,
2003-06-16, 00:41:00,VALID,916.588,VALID,0,VALID,99.8744,VALID,-0.118866,VALID,19.1201,VALID,8,VALID,0.11808,
2003-06-16, 00:42:00,VALID,916.581,VALID,0,VALID,99.8438,VALID,0,VALID,19.0052,VALID,255,VALID,0.505526,
2003-06-16, 00:43:00,VALID,916.583,VALID,0,VALID,99.8464,VALID,0,VALID,19.1216,VALID,265,VALID,0.46875,
2003-06-16, 00:44:00,VALID,916.567,VALID,0,VALID,99.8756,VALID,-0.0339617,VALID,19.215,VALID,276,VALID,0.386102,
2003-06-16, 00:45:00,VALID,916.549,VALID,0,VALID,99.8947,VALID,-0.0169808,VALID,19.286,VALID,276,VALID,0.20148,
2003-06-16, 00:46:00,VALID,916.54,VALID,0,VALID,99.896,VALID,-0.0169808,VALID,19.1892,VALID,279,VALID,0.199805,
2003-06-16, 00:47:00,VALID,916.529,VALID,0,VALID,99.8566,VALID,0,VALID,19.0985,VALID,282,VALID,0.0152138,
2003-06-16, 00:48:00,VALID,916.495,VALID,0,VALID,99.8082,VALID,0,VALID,19.034,VALID,282,VALID,0,
2003-06-16, 00:49:00,VALID,916.474,VALID,0,VALID,99.779,VALID,0,VALID,18.9761,VALID,282,VALID,0,
2003-06-16, 00:50:00,VALID,916.475,VALID,0,VALID,99.7701,VALID,0,VALID,18.9604,VALID,282,VALID,0,
2003-06-16, 00:51:00,VALID,916.453,VALID,0,VALID,99.7917,VALID,-0.0169808,VALID,18.9307,VALID,319,VALID,0.0415179,
2003-06-16, 00:52:00,VALID,916.442,VALID,0,VALID,99.7993,VALID,0,VALID,18.9083,VALID,20,VALID,0.105183,
2003-06-16, 00:53:00,VALID,916.434,VALID,0,VALID,99.8286,VALID,-0.0509425,VALID,18.915,VALID,20,VALID,0.0194257,
2003-06-16, 00:54:00,VALID,916.434,VALID,0,VALID,99.8388,VALID,-0.0169808,VALID,18.9118,VALID,20,VALID,0,
2003-06-16, 00:55:00,VALID,916.424,VALID,0,VALID,99.8311,VALID,0,VALID,18.8954,VALID,66,VALID,0.336571,
2003-06-16, 00:56:00,VALID,916.429,VALID,0,VALID,99.8019,VALID,0,VALID,18.8279,VALID,147,VALID,0.633984,
2003-06-16, 00:57:00,VALID,916.421,VALID,0,VALID,99.7917,VALID,0,VALID,18.7894,VALID,144,VALID,0.550681,
2003-06-16, 00:58:00,VALID,916.427,VALID,0,VALID,99.8121,VALID,0.0169808,VALID,18.7728,VALID,150,VALID,0.590583,
2003-06-16, 00:59:00,VALID,916.412,VALID,0,VALID,99.8375,VALID,0.0169808,VALID,18.7857,VALID,150,VALID,0.495988,
2003-06-16, 01:00:00,VALID,916.392,VALID,0,VALID,99.8782,VALID,0,VALID,18.8152,VALID,149,VALID,0.443834,
2003-06-16, 01:01:00,VALID,916.394,VALID,0,VALID,99.9011,VALID,0,VALID,18.8472,VALID,149,VALID,0.274554,
2003-06-16, 01:02:00,VALID,916.373,VALID,0,VALID,99.9049,VALID,0,VALID,18.8604,VALID,149,VALID,0.193201,
2003-06-16, 01:03:00,VALID,916.36,VALID,0,VALID,99.8934,VALID,0,VALID,18.8512,VALID,149,VALID,0.00443412,
2003-06-16, 01:04:00,VALID,916.343,VALID,0,VALID,99.8553,VALID,0,VALID,18.7184,VALID,149,VALID,0,
2003-06-16, 01:05:00,VALID,916.321,VALID,0,VALID,99.7421,VALID,0,VALID,18.5567,VALID,149,VALID,0.0102796,
2003-06-16, 01:06:00,VALID,916.32,VALID,0,VALID,99.7307,VALID,-0.0169808,VALID,18.515,VALID,149,VALID,0,
2003-06-16, 01:07:00,VALID,916.323,VALID,0,VALID,99.7663,VALID,-0.0169808,VALID,18.5219,VALID,142,VALID,0.000205592,
2003-06-16, 01:08:00,VALID,916.328,VALID,0,VALID,99.807,VALID,0,VALID,18.5281,VALID,74,VALID,0.429482,
2003-06-16, 01:09:00,VALID,916.332,VALID,0,VALID,99.8629,VALID,-0.0339617,VALID,18.5639,VALID,74,VALID,0.554688,
2003-06-16, 01:10:00,VALID,916.318,VALID,0,VALID,99.9138,VALID,-0.0509425,VALID,18.6188,VALID,74,VALID,0.472039,
2003-06-16, 01:11:00,VALID,916.301,VALID,0,VALID,99.9329,VALID,-0.0339617,VALID,18.6483,VALID,74,VALID,0.419196,
2003-06-16, 01:12:00,VALID,916.293,VALID,0,VALID,99.9418,VALID,-0.0169808,VALID,18.6577,VALID,74,VALID,0.423018,
2003-06-16, 01:13:00,VALID,916.278,VALID,0,VALID,99.9481,VALID,-0.0169808,VALID,18.6672,VALID,74,VALID,0.402444,
2003-06-16, 01:14:00,VALID,916.264,VALID,0,VALID,99.9329,VALID,0,VALID,18.6125,VALID,74,VALID,0.328742,
2003-06-16, 01:15:00,VALID,916.251,VALID,0,VALID,99.8578,VALID,0.0169808,VALID,18.4664,VALID,74,VALID,0.550987,
2003-06-16, 01:16:00,VALID,916.219,VALID,0,VALID,99.8527,VALID,0,VALID,18.4249,VALID,75,VALID,0.873242,
2003-06-16, 01:17:00,VALID,916.208,VALID,0,VALID,99.9405,VALID,0,VALID,18.5118,VALID,89,VALID,1.45765,
2003-06-16, 01:18:00,VALID,916.187,VALID,0,VALID,99.9822,VALID,0,VALID,18.651,VALID,104,VALID,1.19088,
2003-06-16, 01:19:00,VALID,916.165,VALID,0,VALID,99.999,VALID,0,VALID,18.696,VALID,103,VALID,1.21136,
2003-06-16, 01:20:00,VALID,916.148,VALID,0,VALID,100,VALID,0,VALID,18.7412,VALID,118,VALID,1.11654,
2003-06-16, 01:21:00,VALID,916.119,VALID,0,VALID,100,VALID,0,VALID,18.7857,VALID,98,VALID,0.940848,
2003-06-16, 01:22:00,VALID,916.102,VALID,0,VALID,100,VALID,0,VALID,18.8253,VALID,89,VALID,1.04688,
2003-06-16, 01:23:00,VALID,916.078,VALID,0,VALID,100,VALID,0,VALID,18.8375,VALID,75,VALID,1.03674,
2003-06-16, 01:24:00,VALID,916.078,VALID,0,VALID,100,VALID,0.0169808,VALID,18.8159,VALID,69,VALID,0.921464,
2003-06-16, 01:25:00,VALID,916.087,VALID,0,VALID,100,VALID,-0.0169808,VALID,18.767,VALID,71,VALID,0.92462,
2003-06-16, 01:26:00,VALID,916.108,VALID,0,VALID,100,VALID,-0.0169808,VALID,18.7317,VALID,73,VALID,0.892969,
2003-06-16, 01:27:00,VALID,916.113,VALID,0,VALID,99.999,VALID,0,VALID,18.6997,VALID,83,VALID,0.935897,
2003-06-16, 01:28:00,VALID,916.109,VALID,0,VALID,100,VALID,0,VALID,18.6925,VALID,85,VALID,0.952914,
2003-06-16, 01:29:00,VALID,916.095,VALID,0,VALID,99.9977,VALID,0,VALID,18.6895,VALID,81,VALID,0.98712,
2003-06-16, 01:30:00,VALID,916.084,VALID,0,VALID,100,VALID,0.0169808,VALID,18.6831,VALID,97,VALID,1.08404,
2003-06-16, 01:31:00,VALID,916.059,VALID,0,VALID,100,VALID,0,VALID,18.7216,VALID,104,VALID,1.03817,
2003-06-16, 01:32:00,VALID,916.041,VALID,0,VALID,100,VALID,0,VALID,18.7605,VALID,95,VALID,1.05532,
2003-06-16, 01:33:00,VALID,916.021,VALID,0,VALID,100,VALID,0,VALID,18.7829,VALID,89,VALID,0.986698,
2003-06-16, 01:34:00,VALID,916.013,VALID,0,VALID,100,VALID,0,VALID,18.8025,VALID,94,VALID,1.11349,
2003-06-16, 01:35:00,VALID,916.01,VALID,0,VALID,100,VALID,0,VALID,18.812,VALID,99,VALID,1.12233,
2003-06-16, 01:36:00,VALID,915.998,VALID,0,VALID,100,VALID,0,VALID,18.835,VALID,108,VALID,0.82279,
2003-06-16, 01:37:00,VALID,915.987,VALID,0,VALID,100,VALID,0,VALID,18.8475,VALID,114,VALID,0.640831,
2003-06-16, 01:38:00,VALID,915.993,VALID,0,VALID,100,VALID,0,VALID,18.8318,VALID,103,VALID,0.378701,
2003-06-16, 01:39:00,VALID,915.988,VALID,0,VALID,100,VALID,0,VALID,18.8152,VALID,111,VALID,0.439509,
2003-06-16, 01:40:00,VALID,915.981,VALID,0,VALID,100,VALID,0,VALID,18.8288,VALID,121,VALID,0.493832,
2003-06-16, 01:41:00,VALID,915.976,VALID,0,VALID,100,VALID,0,VALID,18.8184,VALID,111,VALID,0.50067,
2003-06-16, 01:42:00,VALID,915.964,VALID,0,VALID,100,VALID,-0.0169808,VALID,18.8154,VALID,86,VALID,0.56936,
2003-06-16, 01:43:00,VALID,915.944,VALID,0,VALID,100,VALID,-0.0679233,VALID,18.7839,VALID,69,VALID,0.527644,
2003-06-16, 01:44:00,VALID,915.913,VALID,0,VALID,100,VALID,-0.0679233,VALID,18.7154,VALID,69,VALID,0.59375,
2003-06-16, 01:45:00,VALID,915.901,VALID,0,VALID,100,VALID,-0.0509425,VALID,18.693,VALID,69,VALID,0.572163,
2003-06-16, 01:46:00,VALID,915.898,VALID,0,VALID,100,VALID,-0.0339617,VALID,18.6709,VALID,96,VALID,0.624609,
2003-06-16, 01:47:00,VALID,915.899,VALID,0,VALID,100,VALID,-0.0339617,VALID,18.693,VALID,124,VALID,0.433594,
2003-06-16, 01:48:00,VALID,915.911,VALID,0,VALID,100,VALID,-0.0169808,VALID,18.7059,VALID,142,VALID,0.669764,
2003-06-16, 01:49:00,VALID,915.904,VALID,0,VALID,100,VALID,-0.0509425,VALID,18.7449,VALID,142,VALID,0.957137,
2003-06-16, 01:50:00,VALID,915.904,VALID,0,VALID,100,VALID,-0.0509425,VALID,18.7829,VALID,147,VALID,0.70638,
2003-06-16, 01:51:00,VALID,915.894,VALID,0,VALID,100,VALID,-0.0679233,VALID,18.8186,VALID,117,VALID,0.58683,
2003-06-16, 01:52:00,VALID,915.887,VALID,0,VALID,100,VALID,-0.0169808,VALID,18.8479,VALID,116,VALID,0.605564,
2003-06-16, 01:53:00,VALID,915.884,VALID,0,VALID,100,VALID,-0.0509425,VALID,18.8742,VALID,108,VALID,0.609164,
2003-06-16, 01:54:00,VALID,915.885,VALID,0,VALID,100,VALID,-0.0679233,VALID,18.8802,VALID,84,VALID,0.751645,
2003-06-16, 01:55:00,VALID,915.886,VALID,0,VALID,100,VALID,-0.0679233,VALID,18.8772,VALID,93,VALID,0.641681,
2003-06-16, 01:56:00,VALID,915.876,VALID,0,VALID,100,VALID,-0.0679233,VALID,18.8862,VALID,90,VALID,0.585156,
2003-06-16, 01:57:00,VALID,915.889,VALID,0,VALID,100,VALID,-0.0679233,VALID,18.913,VALID,81,VALID,0.572917,
2003-06-16, 01:58:00,VALID,915.887,VALID,0,VALID,100,VALID,-0.0509425,VALID,18.9097,VALID,80,VALID,0.524704,
2003-06-16, 01:59:00,VALID,915.894,VALID,0,VALID,100,VALID,-0.0509425,VALID,18.9197,VALID,83,VALID,0.413851,
2003-06-16, 02:00:00,VALID,915.911,VALID,0,VALID,100,VALID,-0.0679233,VALID,18.912,VALID,145,VALID,0.475507,
2003-06-16, 02:01:00,VALID,915.915,VALID,0,VALID,100,VALID,-0.0849042,VALID,18.9291,VALID,116,VALID,0.386607,
2003-06-16, 02:02:00,VALID,915.898,VALID,0,VALID,100,VALID,-0.101885,VALID,18.9291,VALID,99,VALID,0.0399071,
2003-06-16, 02:03:00,VALID,915.9,VALID,0,VALID,100,VALID,-0.0679233,VALID,18.9256,VALID,99,VALID,0.00929054,
2003-06-16, 02:04:00,VALID,915.899,VALID,0,VALID,100,VALID,-0.101885,VALID,18.9031,VALID,99,VALID,0.0918997,
2003-06-16, 02:05:00,VALID,915.896,VALID,0,VALID,100,VALID,-0.0509425,VALID,18.8514,VALID,99,VALID,0.0659951,
2003-06-16, 02:06:00,VALID,915.877,VALID,0,VALID,100,VALID,-0.0339617,VALID,18.7735,VALID,99,VALID,0.140625,
2003-06-16, 02:07:00,VALID,915.849,VALID,0,VALID,100,VALID,-0.0679233,VALID,18.7128,VALID,99,VALID,0.190378,
2003-06-16, 02:08:00,VALID,915.823,VALID,0,VALID,100,VALID,-0.0849042,VALID,18.6639,VALID,99,VALID,0.285979,
2003-06-16, 02:09:00,VALID,915.778,VALID,0,VALID,100,VALID,-0.0509425,VALID,18.6291,VALID,97,VALID,0.465402,
2003-06-16, 02:10:00,VALID,915.762,VALID,0,VALID,100,VALID,-0.0509425,VALID,18.6061,VALID,97,VALID,0.486637,
2003-06-16, 02:11:00,VALID,915.764,VALID,0,VALID,100,VALID,-0.101885,VALID,18.613,VALID,97,VALID,0.407589,
2003-06-16, 02:12:00,VALID,915.754,VALID,0,VALID,100,VALID,-0.0849042,VALID,18.6158,VALID,98,VALID,0.226181,
2003-06-16, 02:13:00,VALID,915.77,VALID,0,VALID,100,VALID,-0.101885,VALID,18.5932,VALID,98,VALID,0.316907,
2003-06-16, 02:14:00,VALID,915.769,VALID,0,VALID,100,VALID,-0.0509425,VALID,18.5798,VALID,98,VALID,0.219984,
2003-06-16, 02:15:00,VALID,915.756,VALID,0,VALID,100,VALID,-0.0849042,VALID,18.5768,VALID,98,VALID,0.300781,
2003-06-16, 02:16:00,VALID,915.727,VALID,0,VALID,100,VALID,-0.0849042,VALID,18.5708,VALID,98,VALID,0.0701172,
2003-06-16, 02:17:00,VALID,915.707,VALID,0,VALID,100,VALID,-0.0849042,VALID,18.4936,VALID,95,VALID,0.176604,
2003-06-16, 02:18:00,VALID,915.667,VALID,0,VALID,100,VALID,-0.0509425,VALID,18.3769,VALID,83,VALID,0.333404,
2003-06-16, 02:19:00,VALID,915.643,VALID,0,VALID,100,VALID,-0.0849042,VALID,18.2865,VALID,75,VALID,0.498733,
2003-06-16, 02:20:00,VALID,915.645,VALID,0,VALID,100,VALID,-0.0849042,VALID,18.2769,VALID,75,VALID,0.422526,
2003-06-16, 02:21:00,VALID,915.631,VALID,0,VALID,100,VALID,-0.0849042,VALID,18.3227,VALID,75,VALID,0.21942,
2003-06-16, 02:22:00,VALID,915.639,VALID,0,VALID,100,VALID,-0.0849042,VALID,18.3186,VALID,75,VALID,0.0588796,
2003-06-16, 02:23:00,VALID,915.637,VALID,0,VALID,100,VALID,-0.0679233,VALID,18.3257,VALID,75,VALID,0.0120355,
2003-06-16, 02:24:00,VALID,915.633,VALID,0,VALID,100,VALID,-0.101885,VALID,18.3253,VALID,75,VALID,0.0365954,
2003-06-16, 02:25:00,VALID,915.629,VALID,0,VALID,100,VALID,-0.0679233,VALID,18.3672,VALID,75,VALID,0.0907939,
2003-06-16, 02:26:00,VALID,915.617,VALID,0,VALID,100,VALID,-0.101885,VALID,18.3868,VALID,75,VALID,0.0707031,
2003-06-16, 02:27:00,VALID,915.61,VALID,0,VALID,100,VALID,-0.101885,VALID,18.3905,VALID,75,VALID,0.22496,
2003-06-16, 02:28:00,VALID,915.605,VALID,0,VALID,100,VALID,-0.0679233,VALID,18.3838,VALID,75,VALID,0.120355,
2003-06-16, 02:29:00,VALID,915.582,VALID,0,VALID,100,VALID,-0.101885,VALID,18.3937,VALID,76,VALID,0.284206,
2003-06-16, 02:30:00,VALID,915.581,VALID,0,VALID,100,VALID,-0.0679233,VALID,18.3769,VALID,79,VALID,0.111486,
2003-06-16, 02:31:00,VALID,915.551,VALID,0,VALID,100,VALID,-0.0849042,VALID,18.2388,VALID,79,VALID,0.199107,
2003-06-16, 02:32:00,VALID,915.539,VALID,0,VALID,100,VALID,-0.0849042,VALID,18.1095,VALID,79,VALID,0.259502,
2003-06-16, 02:33:00,VALID,915.524,VALID,0,VALID,100,VALID,-0.101885,VALID,18.0576,VALID,79,VALID,0.34734,
2003-06-16, 02:34:00,VALID,915.49,VALID,0,VALID,100,VALID,-0.0679233,VALID,18.0097,VALID,79,VALID,0.236431,
2003-06-16, 02:35:00,VALID,915.482,VALID,0,VALID,100,VALID,-0.0679233,VALID,17.997,VALID,79,VALID,0.24815,
2003-06-16, 02:36:00,VALID,915.466,VALID,0,VALID,100,VALID,-0.0679233,VALID,18.0839,VALID,107,VALID,0.379764,
2003-06-16, 02:37:00,VALID,915.457,VALID,0,VALID,100,VALID,-0.0679233,VALID,18.1932,VALID,110,VALID,0.103165,
2003-06-16, 02:38:00,VALID,915.454,VALID,0,VALID,100,VALID,-0.0509425,VALID,18.2029,VALID,110,VALID,0.0261102,
2003-06-16, 02:39:00,VALID,915.456,VALID,0,VALID,100,VALID,-0.0339617,VALID,18.1936,VALID,101,VALID,0.341741,
2003-06-16, 02:40:00,VALID,915.468,VALID,0,VALID,100,VALID,-0.0509425,VALID,18.077,VALID,97,VALID,0.335321,
2003-06-16, 02:41:00,VALID,915.477,VALID,0,VALID,100,VALID,-0.0509425,VALID,17.9705,VALID,85,VALID,0.43058,
2003-06-16, 02:42:00,VALID,915.47,VALID,0,VALID,100,VALID,-0.0169808,VALID,17.8614,VALID,60,VALID,0.554116,
2003-06-16, 02:43:00,VALID,915.475,VALID,0,VALID,100,VALID,0,VALID,17.7995,VALID,44,VALID,0.547877,
2003-06-16, 02:44:00,VALID,915.482,VALID,0,VALID,100,VALID,0,VALID,17.7962,VALID,44,VALID,0.327508,
2003-06-16, 02:45:00,VALID,915.482,VALID,0,VALID,100,VALID,0,VALID,17.764,VALID,44,VALID,0.33491,
2003-06-16, 02:46:00,VALID,915.48,VALID,0,VALID,100,VALID,-0.0339617,VALID,17.7739,VALID,44,VALID,0.444922,
2003-06-16, 02:47:00,VALID,915.482,VALID,0,VALID,100,VALID,-0.0169808,VALID,17.8287,VALID,44,VALID,0.509457,
2003-06-16, 02:48:00,VALID,915.498,VALID,0,VALID,100,VALID,0,VALID,17.8999,VALID,44,VALID,0.536529,
2003-06-16, 02:49:00,VALID,915.517,VALID,0,VALID,100,VALID,-0.0169808,VALID,17.9903,VALID,44,VALID,0.47234,
2003-06-16, 02:50:00,VALID,915.534,VALID,0,VALID,100,VALID,-0.0339617,VALID,18.0869,VALID,44,VALID,0.491753,
2003-06-16, 02:51:00,VALID,915.532,VALID,0,VALID,100,VALID,-0.0339617,VALID,18.1616,VALID,44,VALID,0.585268,
2003-06-16, 02:52:00,VALID,915.541,VALID,0,VALID,100,VALID,-0.0169808,VALID,18.2005,VALID,44,VALID,0.54516,
2003-06-16, 02:53:00,VALID,915.525,VALID,0,VALID,100,VALID,-0.0169808,VALID,18.2162,VALID,44,VALID,0.572424,
2003-06-16, 02:54:00,VALID,915.507,VALID,0,VALID,100,VALID,-0.0679233,VALID,18.2294,VALID,45,VALID,0.543997,
2003-06-16, 02:55:00,VALID,915.474,VALID,0,VALID,100,VALID,0,VALID,18.2065,VALID,45,VALID,0.551098,
2003-06-16, 02:56:00,VALID,915.465,VALID,0,VALID,100,VALID,-0.0339617,VALID,18.0938,VALID,45,VALID,0.423047,
2003-06-16, 02:57:00,VALID,915.447,VALID,0,VALID,100,VALID,-0.0169808,VALID,17.9905,VALID,45,VALID,0.480369,
2003-06-16, 02:58:00,VALID,915.423,VALID,0,VALID,100,VALID,-0.0509425,VALID,17.997,VALID,45,VALID,0.432644,
2003-06-16, 02:59:00,VALID,915.419,VALID,0,VALID,100,VALID,-0.0169808,VALID,18.0226,VALID,46,VALID,0.33277,
2003-06-16, 03:00:00,VALID,915.379,VALID,0,VALID,100,VALID,-0.0339617,VALID,18.0549,VALID,52,VALID,0.433066,
2003-06-16, 03:01:00,VALID,915.363,VALID,0,VALID,100,VALID,-0.0339617,VALID,18.0673,VALID,56,VALID,0.520089,
2003-06-16, 03:02:00,VALID,915.336,VALID,0,VALID,100,VALID,-0.0679233,VALID,18.0809,VALID,59,VALID,0.644848,
2003-06-16, 03:03:00,VALID,915.304,VALID,0,VALID,100,VALID,0,VALID,18.068,VALID,60,VALID,0.670819,
2003-06-16, 03:04:00,VALID,915.309,VALID,0,VALID,100,VALID,-0.0339617,VALID,18.0516,VALID,60,VALID,0.643298,
2003-06-16, 03:05:00,VALID,915.306,VALID,0,VALID,100,VALID,-0.0339617,VALID,18.0424,VALID,60,VALID,0.606702,
2003-06-16, 03:06:00,VALID,915.299,VALID,0,VALID,100,VALID,-0.0509425,VALID,18.0226,VALID,60,VALID,0.673781,
2003-06-16, 03:07:00,VALID,915.305,VALID,0,VALID,100,VALID,-0.0339617,VALID,18.0129,VALID,60,VALID,0.835115,
2003-06-16, 03:08:00,VALID,915.298,VALID,0,VALID,100,VALID,-0.0169808,VALID,18,VALID,60,VALID,0.931743,
2003-06-16, 03:09:00,VALID,915.292,VALID,0,VALID,100,VALID,-0.0169808,VALID,18.0161,VALID,60,VALID,0.909375,
2003-06-16, 03:10:00,VALID,915.295,VALID,0,VALID,100,VALID,-0.0169808,VALID,17.9903,VALID,63,VALID,0.936883,
2003-06-16, 03:11:00,VALID,915.311,VALID,0,VALID,100,VALID,-0.0169808,VALID,17.997,VALID,75,VALID,1.07321,
2003-06-16, 03:12:00,VALID,915.309,VALID,0,VALID,100,VALID,-0.0679233,VALID,18.0486,VALID,85,VALID,1.27344,
2003-06-16, 03:13:00,VALID,915.308,VALID,0,VALID,100,VALID,-0.0169808,VALID,18.1005,VALID,93,VALID,1.01843,
2003-06-16, 03:14:00,VALID,915.3,VALID,0,VALID,100,VALID,0,VALID,18.1229,VALID,99,VALID,0.967105,
2003-06-16, 03:15:00,VALID,915.267,VALID,0,VALID,100,VALID,-0.0679233,VALID,18.1397,VALID,107,VALID,0.965461,
2003-06-16, 03:16:00,VALID,915.252,VALID,0,VALID,100,VALID,-0.0339617,VALID,18.1581,VALID,116,VALID,0.754102,
2003-06-16, 03:17:00,VALID,915.235,VALID,0,VALID,100,VALID,-0.0169808,VALID,18.1745,VALID,134,VALID,0.757813,
2003-06-16, 03:18:00,VALID,915.227,VALID,0,VALID,100,VALID,0,VALID,18.1999,VALID,149,VALID,0.986275,
2003-06-16, 03:19:00,VALID,915.225,VALID,0,VALID,100,VALID,0,VALID,18.2296,VALID,151,VALID,1.07264,
2003-06-16, 03:20:00,VALID,915.216,VALID,0,VALID,100,VALID,-0.0339617,VALID,18.2882,VALID,147,VALID,1.0421,
2003-06-16, 03:21:00,VALID,915.187,VALID,0,VALID,100,VALID,0,VALID,18.3458,VALID,145,VALID,1.0529,
2003-06-16, 03:22:00,VALID,915.179,VALID,0,VALID,100,VALID,-0.0169808,VALID,18.4136,VALID,134,VALID,0.893293,
2003-06-16, 03:23:00,VALID,915.158,VALID,0,VALID,100,VALID,-0.0339617,VALID,18.4551,VALID,101,VALID,0.513936,
2003-06-16, 03:24:00,VALID,915.151,VALID,0,VALID,100,VALID,0,VALID,18.4521,VALID,86,VALID,0.972656,
2003-06-16, 03:25:00,VALID,915.137,VALID,0,VALID,100,VALID,-0.0339617,VALID,18.4657,VALID,68,VALID,0.749789,
2003-06-16, 03:26:00,VALID,915.133,VALID,0,VALID,100,VALID,-0.0339617,VALID,18.4163,VALID,72,VALID,0.841211,
2003-06-16, 03:27:00,VALID,915.136,VALID,0,VALID,100,VALID,-0.0679233,VALID,18.4325,VALID,78,VALID,0.843149,
2003-06-16, 03:28:00,VALID,915.146,VALID,0.2,VALID,100,VALID,-0.0339617,VALID,18.4523,VALID,85,VALID,0.590794,
2003-06-16, 03:29:00,VALID,915.156,VALID,0,VALID,100,VALID,-0.0339617,VALID,18.4553,VALID,85,VALID,0.509713,
2003-06-16, 03:30:00,VALID,915.16,VALID,0,VALID,100,VALID,-0.0169808,VALID,18.4355,VALID,85,VALID,0.34375,
2003-06-16, 03:31:00,VALID,915.164,VALID,0,VALID,100,VALID,-0.0169808,VALID,18.4163,VALID,85,VALID,0.331473,
2003-06-16, 03:32:00,VALID,915.159,VALID,0,VALID,100,VALID,0,VALID,18.3712,VALID,87,VALID,0.612542,
2003-06-16, 03:33:00,VALID,915.138,VALID,0,VALID,100,VALID,0,VALID,18.3582,VALID,94,VALID,0.910051,
2003-06-16, 03:34:00,VALID,915.122,VALID,0,VALID,100,VALID,0,VALID,18.3811,VALID,105,VALID,0.798314,
2003-06-16, 03:35:00,VALID,915.114,VALID,0,VALID,100,VALID,0,VALID,18.3871,VALID,117,VALID,0.498972,
2003-06-16, 03:36:00,VALID,915.09,VALID,0,VALID,100,VALID,0,VALID,18.3937,VALID,129,VALID,0.325457,
2003-06-16, 03:37:00,VALID,915.078,VALID,0,VALID,100,VALID,0,VALID,18.358,VALID,116,VALID,0.201069,
2003-06-16, 03:38:00,VALID,915.053,VALID,0,VALID,100,VALID,-0.0169808,VALID,18.329,VALID,110,VALID,0.469161,
2003-06-16, 03:39:00,VALID,915.035,VALID,0,VALID,100,VALID,0,VALID,18.3359,VALID,108,VALID,0.61875,
2003-06-16, 03:40:00,VALID,915.006,VALID,0,VALID,100,VALID,0,VALID,18.3292,VALID,141,VALID,0.487459,
2003-06-16, 03:41:00,VALID,914.984,VALID,0,VALID,100,VALID,0,VALID,18.3255,VALID,141,VALID,0.394866,